Middlesboro, KY

12:59 AM CDT on August 21, 2017 (GMT -0500)
Middlesboro

Weather History for K1A6 - January, 2014

Change the Weather History Date:

Friday, January 24, 2014

  Actual Average (KLOZ) Record (KLOZ)
Temperature  
Mean Temperature 12 °F -  
Max Temperature 24 °F 45 °F 74 °F (1972)
Min Temperature 1 °F 27 °F -18 °F (1963)
Degree Days  
Heating Degree Days 52    
Moisture  
Dew Point -3 °F    
Average Humidity 49    
Maximum Humidity 82    
Minimum Humidity 29    
Precipitation  
Precipitation 0.00 in - - ()
Sea Level Pressure  
Sea Level Pressure 30.42 in    
Wind  
Wind Speed 5 mph (South)    
Max Wind Speed 17 mph    
Max Gust Speed 25 mph    
Visibility 10 miles    
Events      
Averages and records for this station are not official NWS values.
T = Trace of Precipitation, MM = Missing Value Source: NWS Daily Summary

Daily Weather History Graph

Daily Weather History Graph

Search for Another Location

Airport or City:

Trip Planner

Search our weather history database for the weather conditions in past years. The results will help you decide how hot, cold, wet, or windy it might be!

Date:

Astronomy

Jan. 24, 2014 Rise Set
Actual Time 6:42 AM CST 4:52 PM CST
Civil Twilight 6:14 AM CST 5:19 PM CST
Nautical Twilight 5:43 AM CST 5:51 PM CST
Astronomical Twilight 5:12 AM CST 6:21 PM CST
Moon 12:10 AM CST (1/24) 11:08 AM CST (1/24)
Length of Visible Light 11h 05m
Length of Day
10h 09m
Last Quarter, 44% of the Moon is Illuminated
Jan 24
Last Quarter
Jan 30
New
Feb 6
First Quarter
Feb 14
Full
Feb 22
Last Quarter

Hourly Weather History & Observations

Time (CST) Temp. Windchill Dew Point Humidity Pressure Visibility Wind Dir Wind Speed Gust Speed Precip Events Conditions
12:15 AM 7.0 °F -4.5 °F -4.4 °F 60% 30.60 in 10.0 mi NW 6.9 mph - N/A   Clear
12:35 AM 6.8 °F -0.1 °F -4.4 °F 60% 30.60 in 10.0 mi NW 3.5 mph - N/A   Clear
12:55 AM 6.6 °F -5.0 °F -4.4 °F 61% 30.61 in 10.0 mi NW 6.9 mph - N/A   Clear
1:15 AM 6.4 °F -3.9 °F -4.4 °F 61% 30.62 in 10.0 mi NW 5.8 mph - N/A   Scattered Clouds
1:35 AM 6.4 °F -2.4 °F -4.0 °F 62% 30.63 in 10.0 mi NNW 4.6 mph - N/A   Overcast
1:55 AM 5.9 °F - -4.0 °F 64% 30.64 in 10.0 mi Calm Calm - N/A   Overcast
2:15 AM 5.9 °F - -4.2 °F 63% 30.64 in 10.0 mi Calm Calm - N/A   Overcast
2:35 AM 5.9 °F - -4.0 °F 64% 30.64 in 10.0 mi Calm Calm - N/A   Overcast
2:55 AM 5.7 °F - -4.0 °F 64% 30.64 in 10.0 mi Calm Calm - N/A   Overcast
3:15 AM 5.7 °F - -4.0 °F 64% 30.64 in 10.0 mi Calm Calm - N/A   Overcast
3:35 AM 5.0 °F - -3.5 °F 68% 30.63 in 10.0 mi Calm Calm - N/A   Overcast
3:55 AM 5.0 °F - -3.1 °F 69% 30.63 in 10.0 mi Calm Calm - N/A   Overcast
4:15 AM 4.6 °F - -2.6 °F 72% 30.62 in 10.0 mi Calm Calm - N/A   Overcast
4:35 AM 3.7 °F - -2.6 °F 75% 30.63 in 10.0 mi Calm Calm - N/A   Overcast
4:55 AM 3.2 °F - -2.2 °F 78% 30.61 in 10.0 mi Calm Calm - N/A   Scattered Clouds
5:15 AM 3.0 °F - -2.0 °F 80% 30.61 in 10.0 mi Calm Calm - N/A   Clear
5:35 AM 2.8 °F - -2.0 °F 80% 30.61 in 10.0 mi Calm Calm - N/A   Clear
5:55 AM 2.7 °F - -2.2 °F 80% 30.60 in 10.0 mi Calm Calm - N/A   Clear
6:15 AM 2.3 °F - -2.2 °F 81% 30.59 in 10.0 mi Calm Calm - N/A   Clear
6:35 AM 2.3 °F - -2.4 °F 81% 30.59 in 10.0 mi Calm Calm - N/A   Clear
6:55 AM 1.9 °F - -2.4 °F 82% 30.59 in 10.0 mi Calm Calm - N/A   Clear
7:15 AM 2.1 °F - -2.7 °F 80% 30.59 in 10.0 mi Calm Calm - N/A   Clear
7:35 AM 2.7 °F - -2.6 °F 79% 30.58 in 10.0 mi Calm Calm - N/A   Clear
7:55 AM 3.6 °F - -2.9 °F 74% 30.58 in 10.0 mi Calm Calm - N/A   Clear
8:15 AM 4.1 °F - -1.7 °F 77% 30.58 in 10.0 mi Calm Calm - N/A   Clear
8:35 AM 5.9 °F - -1.1 °F 73% 30.58 in 10.0 mi Calm Calm - N/A   Clear
8:55 AM 7.7 °F - -1.5 °F 66% 30.58 in 10.0 mi Calm Calm - N/A   Clear
9:15 AM 10.4 °F 2.2 °F -0.9 °F 60% 30.58 in 10.0 mi SE 4.6 mph - N/A   Clear
9:35 AM 12.0 °F 0.5 °F -0.0 °F 59% 30.59 in 10.0 mi South 8.1 mph - N/A   Clear
9:55 AM 13.3 °F 2.0 °F 0.7 °F 57% 30.59 in 10.0 mi SSE 8.1 mph - N/A   Clear
10:15 AM 13.8 °F 1.8 °F 0.5 °F 56% 30.58 in 10.0 mi South 9.2 mph - N/A   Clear
10:35 AM 15.1 °F 2.5 °F 0.9 °F 53% 30.57 in 10.0 mi South 10.4 mph - N/A   Clear
10:55 AM 16.3 °F 6.7 °F 1.2 °F 51% 30.56 in 10.0 mi South 6.9 mph - N/A   Clear
11:15 AM 16.7 °F 7.2 °F 0.3 °F 49% 30.54 in 10.0 mi South 6.9 mph - N/A   Clear
11:35 AM 17.8 °F 6.6 °F -0.2 °F 45% 30.51 in 10.0 mi SSE 9.2 mph - N/A   Clear
11:55 AM 18.9 °F 8.8 °F -0.6 °F 43% 30.49 in 10.0 mi South 8.1 mph - N/A   Clear
12:15 PM 19.9 °F 12.1 °F -0.6 °F 41% 30.48 in 10.0 mi South 5.8 mph - N/A   Clear
12:35 PM 20.8 °F 10.4 °F -0.9 °F 39% 30.46 in 10.0 mi South 9.2 mph 16.1 mph N/A   Clear
12:55 PM 21.6 °F 9.9 °F -2.0 °F 36% 30.44 in 10.0 mi South 11.5 mph 17.3 mph N/A   Clear
1:15 PM 21.7 °F 15.5 °F -2.4 °F 35% 30.42 in 10.0 mi SSE 4.6 mph - N/A   Clear
1:35 PM 22.8 °F 12.2 °F -2.4 °F 33% 30.41 in 10.0 mi South 10.4 mph - N/A   Clear
1:55 PM 23.0 °F 11.7 °F -2.7 °F 32% 30.39 in 10.0 mi South 11.5 mph 16.1 mph N/A   Clear
2:15 PM 23.5 °F 14.5 °F -3.5 °F 31% 30.38 in 10.0 mi SSW 8.1 mph - N/A   Clear
2:35 PM 23.9 °F 15.8 °F -3.5 °F 30% 30.36 in 10.0 mi South 6.9 mph - N/A   Clear
2:55 PM 24.3 °F 17.3 °F -3.8 °F 29% 30.36 in 10.0 mi SSW 5.8 mph - N/A   Clear
3:15 PM 24.1 °F 14.4 °F -3.1 °F 31% 30.34 in 10.0 mi South 9.2 mph - N/A   Clear
3:35 PM 23.9 °F 16.8 °F -3.5 °F 30% 30.33 in 10.0 mi South 5.8 mph - N/A   Clear
3:55 PM 23.5 °F 15.4 °F -3.5 °F 31% 30.32 in 10.0 mi SSW 6.9 mph - N/A   Clear
4:15 PM 23.0 °F 15.8 °F -4.0 °F 31% 30.31 in 10.0 mi South 5.8 mph - N/A   Clear
4:35 PM 22.6 °F 18.0 °F -4.0 °F 31% 30.30 in 10.0 mi South 3.5 mph - N/A   Clear
4:55 PM 22.1 °F 12.8 °F -4.2 °F 32% 30.29 in 10.0 mi South 8.1 mph - N/A   Clear
5:15 PM 22.1 °F 13.7 °F -4.7 °F 31% 30.28 in 10.0 mi South 6.9 mph - N/A   Clear
5:35 PM 21.9 °F 14.5 °F -4.5 °F 31% 30.27 in 10.0 mi South 5.8 mph - N/A   Clear
5:55 PM 21.4 °F 15.1 °F -4.5 °F 32% 30.26 in 10.0 mi SW 4.6 mph - N/A   Clear
6:15 PM 21.4 °F 13.8 °F -4.2 °F 33% 30.25 in 10.0 mi SSE 5.8 mph - N/A   Clear
6:35 PM 21.6 °F 13.0 °F -4.5 °F 32% 30.24 in 10.0 mi South 6.9 mph - N/A   Clear
6:55 PM 21.0 °F 13.4 °F -4.2 °F 33% 30.23 in 10.0 mi South 5.8 mph - N/A   Clear
7:15 PM 21.2 °F 13.6 °F -4.0 °F 33% 30.21 in 10.0 mi South 5.8 mph - N/A   Clear
7:35 PM 21.2 °F 11.7 °F -4.0 °F 33% 30.20 in 10.0 mi South 8.1 mph - N/A   Clear
7:55 PM 20.8 °F 10.4 °F -3.3 °F 35% 30.18 in 10.0 mi South 9.2 mph - N/A   Clear
8:15 PM 20.3 °F 10.6 °F -3.5 °F 35% 30.17 in 10.0 mi SSE 8.1 mph - N/A   Clear
8:35 PM 19.9 °F 11.1 °F -3.1 °F 36% 30.16 in 10.0 mi SSE 6.9 mph - N/A   Clear
8:55 PM 20.3 °F 8.3 °F -2.9 °F 36% 30.15 in 10.0 mi SSE 11.5 mph 17.3 mph N/A   Clear
9:15 PM 21.2 °F 9.5 °F -3.3 °F 34% 30.14 in 10.0 mi SSE 11.5 mph 18.4 mph N/A   Clear
9:35 PM 21.2 °F 9.5 °F -3.3 °F 34% 30.13 in 10.0 mi SSE 11.5 mph 19.6 mph N/A   Clear
9:55 PM 22.5 °F 12.4 °F -3.3 °F 32% 30.12 in 10.0 mi SSE 9.2 mph 19.6 mph N/A   Clear
10:15 PM 23.2 °F 11.4 °F -4.0 °F 30% 30.11 in 10.0 mi South 12.7 mph 25.3 mph N/A   Clear
10:35 PM 23.2 °F 11.4 °F -3.6 °F 31% 30.10 in 10.0 mi South 12.7 mph 23.0 mph N/A   Clear
10:55 PM 23.4 °F 12.8 °F -4.0 °F 30% 30.08 in 10.0 mi South 10.4 mph 25.3 mph N/A   Clear
11:15 PM 23.7 °F 14.0 °F -4.4 °F 29% 30.08 in 10.0 mi South 9.2 mph 23.0 mph N/A   Clear
11:35 PM 23.9 °F 15.0 °F -4.2 °F 29% 30.07 in 10.0 mi South 8.1 mph - N/A   Clear
11:55 PM 23.9 °F 10.3 °F -3.8 °F 30% 30.04 in 10.0 mi SSW 17.3 mph 24.2 mph N/A   Clear